TimeHST,TemperatureF,Dew PointF,Humidity,Sea Level PressureIn,VisibilityMPH,Wind Direction,Wind SpeedMPH,Gust SpeedMPH,PrecipitationIn,Events,Conditions,WindDirDegrees,DateUTC
12:39 AM,77.0,69.8,78,30.00,6.2,East,8.1,-,0.00,,Mostly Cloudy,80,2013-09-19 10:39:00
12:57 AM,77.0,69.1,76,29.98,10.0,East,11.5,19.6,0.00,,Mostly Cloudy,80,2013-09-19 10:57:00
1:11 AM,75.2,69.8,83,29.99,6.2,East,12.7,18.4,N/A,,Scattered Clouds,80,2013-09-19 11:11:00
1:57 AM,75.2,69.1,81,29.98,10.0,East,8.1,17.3,N/A,,Partly Cloudy,80,2013-09-19 11:57:00
2:57 AM,75.2,68.0,78,29.97,10.0,ENE,9.2,-,N/A,,Clear,70,2013-09-19 12:57:00
3:57 AM,75.2,69.1,81,29.96,10.0,ENE,8.1,-,N/A,,Scattered Clouds,70,2013-09-19 13:57:00
4:57 AM,75.2,68.0,78,29.96,7.0,ENE,4.6,24.2,0.00,Rain,Light Rain,70,2013-09-19 14:57:00
5:57 AM,75.2,70.0,84,29.97,10.0,East,5.8,-,0.00,,Scattered Clouds,80,2013-09-19 15:57:00
6:57 AM,75.2,69.1,81,30.00,10.0,ENE,4.6,-,N/A,,Partly Cloudy,70,2013-09-19 16:57:00
7:57 AM,77.0,69.1,76,30.02,10.0,ENE,8.1,-,N/A,,Clear,70,2013-09-19 17:57:00
8:57 AM,78.8,68.0,69,30.03,10.0,ENE,8.1,17.3,N/A,,Clear,70,2013-09-19 18:57:00
9:57 AM,80.6,68.0,65,30.04,10.0,ENE,10.4,-,N/A,,Partly Cloudy,60,2013-09-19 19:57:00
10:57 AM,82.4,69.1,64,30.04,10.0,ENE,11.5,17.3,N/A,,Scattered Clouds,60,2013-09-19 20:57:00
11:57 AM,82.4,69.1,64,30.04,10.0,NE,10.4,-,N/A,,Scattered Clouds,50,2013-09-19 21:57:00
12:57 PM,84.2,69.1,60,30.01,10.0,ENE,11.5,16.1,N/A,,Clear,70,2013-09-19 22:57:00
1:57 PM,84.2,69.1,60,30.00,10.0,ENE,9.2,-,N/A,,Clear,60,2013-09-19 23:57:00
2:57 PM,84.2,70.0,62,29.99,10.0,ENE,9.2,-,N/A,,Scattered Clouds,70,2013-09-20 00:57:00
3:57 PM,84.2,69.1,60,29.99,10.0,ENE,11.5,-,N/A,,Partly Cloudy,60,2013-09-20 01:57:00
4:57 PM,82.4,69.1,64,29.99,10.0,ENE,6.9,17.3,N/A,,Scattered Clouds,60,2013-09-20 02:57:00
5:57 PM,82.4,69.1,64,30.00,10.0,ENE,8.1,-,N/A,,Partly Cloudy,70,2013-09-20 03:57:00
6:57 PM,80.6,69.1,68,30.01,10.0,East,8.1,-,N/A,,Partly Cloudy,80,2013-09-20 04:57:00
7:57 PM,78.8,69.1,72,30.02,10.0,East,9.2,-,N/A,,Scattered Clouds,80,2013-09-20 05:57:00
8:57 PM,77.0,68.0,74,30.04,10.0,ENE,9.2,-,N/A,,Scattered Clouds,70,2013-09-20 06:57:00
9:57 PM,77.0,69.1,76,30.05,10.0,East,8.1,-,N/A,,Mostly Cloudy,80,2013-09-20 07:57:00
10:57 PM,75.2,69.1,81,30.05,10.0,East,8.1,-,N/A,,Partly Cloudy,80,2013-09-20 08:57:00
11:57 PM,75.2,68.0,78,30.04,10.0,East,6.9,17.3,N/A,,Clear,80,2013-09-20 09:57:00